Regional Weather Roundup
Issued by NWS

Home | Current Version | Previous Version | Text Only | Print | Product List | Glossary On
Versions: 1 2 3 4 5 6 7 8 9 10 11 12 13 14 15 16 17 18 19 20 21 22 23 24 25 26 27 28 29 30 31 32 33 34 35 36 37 38 39 40 41 42 43 44 45 46 47 48 49 50
445
ASUS43 KTOP 280508
RWRKS

WEATHER ROUNDUP FOR KANSAS
NATIONAL WEATHER SERVICE GOODLAND KS
1100 PM CST MON FEB 27 2017

NOTE:  "FAIR" INDICATES FEW OR NO CLOUDS BELOW 12,000 FEET WITH NO
SIGNIFICANT WEATHER AND/OR OBSTRUCTIONS TO VISIBILITY.

KSZ001>006-013>018-027>032-041>047-280600-
NORTHWEST KANSAS

CITY           SKY/WX    TMP DP  RH WIND       PRES   REMARKS
GOODLAND       PTCLDY    49  16  26 SW26G36   29.60R
HAYS             N/A     42  32  67 SW13      29.62R
HILL CITY      CLOUDY    46  30  53 SW10      29.61F
RUSSELL        CLEAR     47  36  65 S15       29.58F
$$

KSZ061>065-074>080-084>089-280600-
SOUTHWEST KANSAS

CITY           SKY/WX    TMP DP  RH WIND       PRES   REMARKS
DODGE CITY     PTCLDY    52  18  26 SW14      29.70R
ELKHART          N/A     53  14  21 W14         N/A
GARDEN CITY    PTCLDY    39  17  41 SW9       29.70R
GREAT BEND     CLEAR     57  37  47 S21G29    29.64S
LIBERAL        PTCLDY    50  10  20 W10       29.73F
PRATT          PTCLDY    53  38  56 S16       29.69S
$$

KSZ066>073-081>083-090>101-280600-
SOUTHEAST KANSAS

CITY           SKY/WX    TMP DP  RH WIND       PRES   REMARKS
CHANUTE        CLOUDY    63  58  83 S18       29.80S
COFFEYVILLE    CLOUDY    63  58  83 S18G26    29.82S
HUTCHINSON     CLEAR     54  42  64 S15       29.69R
MEDICINE LODGE   N/A     52  41  66 S13       29.71R
NEWTON         PTCLDY    56  54  93 S17       29.71R
PARSONS        CLOUDY    64  58  80 S16G25    29.82S
WICHITA INTL   CLOUDY    58  57  97 S21G31    29.73R FOG
WICHITA JABRA  CLOUDY    59  58  96 S20G29    29.73S FOG
WICHITA MCCONL CLOUDY    59  57  93 S22G31    29.73S
WINFIELD       CLOUDY    61  58  90 S20G29    29.77S
$$

KSZ007>012-019>026-033>040-048>060-102>105-280600-
NORTHEAST KANSAS

CITY           SKY/WX    TMP DP  RH WIND       PRES   REMARKS
CONCORDIA      CLEAR     45  42  89 SE10      29.63F
EMPORIA        CLOUDY    60  56  86 S22G32    29.73S
LAWRENCE         N/A     59  55  87 MISG      29.74F
MANHATTAN      CLEAR     57  51  80 S12       29.67F
MARYSVILLE     CLOUDY    45  41  87 SE6       29.67F
OLATHE IND     MOCLDY    59  53  80 S16       29.76F
OLATHE EXE     CLOUDY    59  54  83 S14       29.77F
SALINA         CLOUDY    55  42  61 S12       29.64F
TOPEKA BILLARD PTCLDY    60  56  86 S14G23    29.72S
TOPEKA FORBES  MOCLDY    61  54  77 S16       29.72F
$$




USA.gov is the U.S. government's official web portal to all federal, state and local government web resources and services.